Terug naar catalogus

STARLINK-34291

ActiefCommunicatieVLEO
NORAD 64359·PAYLOAD·🇺🇸 United States

Gelanceerd Jun 13, 2025 vanaf Vandenberg Space Force Base

Loading…

Volgende Passages (komende 24 uur)

TLE

VersSource: CelesTrak SupGP

Epoch: Sep 15, 2026, 03:37 UTC

1 64359C 25126R   26258.15118056 -.00029189  00000+0 -10153-2 0  2583
2 64359  70.0003 275.2237 0003510 266.1996 309.9828 15.29594960    15

Volg STARLINK-34291 in realtime met AllMySat

Download on the App Store